Location: Sommers-Bausch Observatory
(40.0037°N, 105.2635°W)
Time: 15:47:08
(UTC-07:00)

Daily predictions for brighter satellites

Satellite Brightness Start Highest point End
(mag) Time Altitude Azimuth Time Altitude Azimuth Time Altitude Azimuth
Genesis I 3.6 18:10:55 10° NNW 18:14:43 44° NE 18:18:29 10° SE
Cosmos 1570 Rocket 4.5 18:11:39 10° N 18:16:33 40° ENE 18:21:27 10° SE
NOSS 8 (E) 4.5 18:13:26 10° SSW 18:16:52 84° ESE 18:20:35 10° NE
Cosmos 2322 Rocket 3.9 18:12:27 10° NW 18:17:36 38° WSW 18:22:45 10° S
Okean 1 Rocket 3.5 18:14:13 10° SSE 18:18:26 41° E 18:22:39 10° NNE
Cosmos 1238 Rocket 2.3 18:17:00 10° N 18:19:51 45° E 18:22:48 10° SSE
OTV 4 2.6 18:18:21 10° SSW 18:20:11 15° SSE 18:22:01 10° ESE
ASTRO F (AKARI) 4.4 18:17:40 10° NNE 18:21:07 65° E 18:24:23 10° S
Cosmos 2181 Rocket 4.1 18:15:13 10° N 18:21:27 62° E 18:27:43 10° SSE
Cosmos 1484 Rocket 4.2 18:19:49 10° S 18:23:36 45° W 18:27:21 10° NNW
Cosmos 1025 Rocket 4.0 18:21:33 10° NNE 18:25:15 26° ENE 18:28:57 10° SE
Cosmos 2151 Rocket 4.5 18:21:49 10° SSW 18:26:14 56° W 18:30:42 10° N
METEOR-M 4.1 18:21:26 10° SSE 18:26:43 65° ENE 18:32:01 10° N
USA 229 DEB 4.2 18:20:01 10° NNW 18:26:47 43° NE 18:33:37 10° ESE
USA 229 4.2 18:20:08 10° NNW 18:26:52 43° NE 18:33:42 10° ESE
Cosmos 1709 Rocket 4.0 18:21:49 10° S 18:28:02 88° E 18:34:13 10° N
Cosmos 2074 Rocket 4.5 18:23:58 10° SSE 18:29:39 38° E 18:35:23 10° NNE
Spot 2 Rocket 4.4 18:26:34 10° SE 18:30:50 28° ENE 18:35:07 10° N
NOSS 8 (H) 4.4 18:28:50 10° SSW 18:32:13 87° ESE 18:35:47 10° NE
Hubble Space Telescope 3.1 18:33:50 10° SSW 18:35:50 13° S 18:37:49 10° SE
Cosmos 2184 Rocket 4.4 18:30:15 10° SSE 18:36:05 41° E 18:41:53 10° NNE
Cosmos 2322 3.9 18:33:48 10° NNW 18:39:32 79° WSW 18:45:12 10° SSE
SJ-6B 2.7 18:40:39 10° SSE 18:44:36 71° ENE 18:48:30 10° N
Cosmos 1850 Rocket 4.0 18:40:40 10° SSW 18:45:58 86° ESE 18:51:21 10° NNE
Cosmos 405 Rocket 4.0 18:43:07 10° NNE 18:46:21 22° ENE 18:48:31 15° ESE
HJ-1C 3.7 18:44:20 10° SSE 18:47:33 43° ENE 18:50:46 10° N
Cosmos 2208 Rocket 4.0 18:42:20 10° NNW 18:47:46 70° ENE 18:53:08 10° SSE
Meteor 1-19 Rocket 4.4 18:44:35 10° NNW 18:50:19 81° W 18:56:06 10° S
H-2A R/B 3.4 18:47:36 10° SE 18:50:57 32° ENE 18:54:19 10° N
ALOS 2.3 18:46:30 10° SSE 18:51:05 58° ENE 18:55:40 10° N
CZ-2D R/B 4.3 18:49:35 15° ESE 18:51:50 25° ENE 18:55:00 10° NNE
Cosmos 2237 Rocket 3.3 18:49:10 10° N 18:53:52 26° NE 18:56:29 19° E
NOSS 0 Rocket 4.5 18:49:05 10° N 18:54:45 37° ENE 18:59:13 15° ESE
Cosmos 2297 Rocket 3.4 18:51:45 10° SE 18:55:37 19° E 18:56:25 19° E
Cosmos 2333 4.2 18:50:47 10° NNW 18:56:31 66° ENE 19:02:14 10° SSE
Okean 1-7 Rocket 3.5 18:52:10 10° N 18:56:42 78° E 19:01:09 10° S
Cosmos 2237 4.3 18:52:31 10° NNW 18:58:17 83° WSW 19:03:58 10° SSE
COSMOS 2428 2.6 18:52:44 10° NNW 18:58:26 79° ENE 19:04:08 10° SSE
Meteor 2-4 Rocket 3.7 18:58:33 10° N 19:04:05 86° W 19:09:27 10° S
Okean 2 3.6 19:00:57 10° N 19:04:59 47° E 19:09:01 10° SSE
FREGAT/IRIS 3.7 19:02:16 10° S 19:05:15 48° W 19:08:16 10° NNW
Gbstr 26 Del rocket 4.1 19:01:53 10° W 19:05:21 32° NNW 19:08:16 13° NE
Cosmos 2154 Rocket 4.5 18:59:52 10° SSE 19:05:36 37° E 19:11:20 10° NNE
Cosmos 2219 Rocket 2.3 19:00:50 10° NNW 19:06:18 50° ENE 19:10:46 15° SE
Cosmos 2360 Rocket 3.6 19:01:06 10° NW 19:06:22 40° WSW 19:11:36 10° S
Abrixas rocket 3.0 19:04:57 10° WSW 19:08:12 49° NNW 19:09:57 24° NE
Cosmos 2285 Rocket 4.0 19:01:49 10° NNW 19:08:14 67° ENE 19:14:35 10° SSE
Meteor 1-23 Rocket 4.2 19:04:12 10° N 19:10:02 87° E 19:15:45 10° S
Helios 1A 3.6 19:10:06 29° ESE 19:11:18 35° ENE 19:15:05 10° N
Helios 1B rocket 3.0 19:08:21 10° NNE 19:12:09 33° E 19:15:54 10° SSE
Cosmos 2219 3.6 19:08:14 10° SSW 19:13:56 68° WNW 19:19:41 10° NNE
Cosmos 1536 3.8 19:11:15 10° SSW 19:15:06 49° W 19:18:58 10° N
Cosmos 2227 Rocket 2.6 19:10:39 10° S 19:15:49 38° ESE 19:20:35 12° NE
Atlas Centaur 2 4.1 19:11:42 10° SSW 19:16:21 18° SSE 19:18:27 15° SE
SAR-Lupe-4 3.7 19:19:13 45° E 19:19:40 49° ENE 19:23:08 10° N
BREEZE-M DEB (TANK) 2.5 19:19:23 10° WNW 19:22:09 88° SSW 19:25:26 25° SE
Cosmos 1455 Rocket 3.3 19:19:10 10° SSE 19:23:18 42° E 19:27:25 10° NNE
Cosmos 841 Rocket 4.5 19:22:36 10° N 19:26:32 27° NE 19:26:32 27° NE
SL-16 R/B 3.5 19:25:19 10° N 19:29:17 22° NE 19:29:17 22° NE
ATLAS CENTAUR R/B 1.6 19:27:38 10° SW 19:31:14 50° S 19:31:14 50° S
BREEZE-M DEB (TANK) 3.7 19:28:43 10° NW 19:32:13 76° NNE 19:36:28 29° ESE
Resurs 01 Rocket 2.1 19:32:30 10° S 19:36:51 60° W 19:41:13 10° NNW
Cosmos 1763 Rocket 3.9 19:32:50 10° N 19:37:34 41° ENE 19:37:34 41° ENE
Resurs 1-3 4.2 19:42:49 10° S 19:47:06 55° W 19:51:26 10° NNW
GPS 2-04 Rocket1 3.4 19:44:43 10° WSW 19:48:43 46° S 19:48:43 46° S
Cosmos 2333 Rocket 2.2 19:46:48 10° NNW 19:52:35 85° WSW 19:55:05 36° SSE
GEOS 3 Rocket 3.7 19:49:28 19° NNE 19:53:15 74° NW 19:58:31 10° SW
Cosmos 1980 3.5 19:47:46 10° NNW 19:53:27 79° ENE 19:54:45 55° SE
OTV 4 3.1 19:53:00 10° WSW 19:53:54 18° SW 19:53:54 18° SW
Cosmos 1892 Rocket 4.3 19:56:39 10° NNW 20:00:53 51° W 20:03:25 22° SSW
Hubble Space Telescope 3.4 20:13:43 10° SW 20:14:18 12° SW 20:14:18 12° SW
Cosmos 2082 3.8 20:12:22 10° SSW 20:18:05 73° WNW 20:20:08 41° N
Cosmos 1295 Rocket 4.3 20:17:50 80° SE 20:18:06 83° E 20:24:26 10° N
Envisat 3.6 20:27:13 51° NW 20:27:13 51° NW 20:31:07 10° NNW
NOSS 3-1 (A) 3.9 20:23:06 10° NNW 20:30:49 84° NE 20:31:36 75° ESE
ATLAS 2AS CENTAUR R/B 3.9 20:29:11 10° NNW 20:35:33 33° NNE 20:35:33 33° NNE
Cosmos 2237 Rocket 2.9 20:32:42 10° NW 20:38:10 48° WSW 20:38:23 47° WSW
Cosmos 2297 Rocket 2.8 20:33:36 10° SW 20:38:28 53° W 20:38:28 53° W
CZ-3 Stage 3 4.4 20:22:07 10° SW 20:45:18 36° S 20:45:34 36° S
NOSS 3-1 (C) 4.3 20:40:57 10° NW 20:48:33 64° WSW 20:49:43 58° SSW
Cosmos 2219 Rocket 4.3 20:45:42 10° NW 20:49:49 21° W 20:52:36 15° SW
Cosmos 2227 Rocket 3.8 20:54:58 10° WSW 20:59:55 30° WNW 21:02:45 20° NNW
SL-16 R/B 4.0 21:08:36 10° NNW 21:11:12 27° NW 21:11:12 27° NW
